Content
SEND FEEDBACK

Daily
Averages
Monthly
Summary
United States of America

ASHEVILLE, NORTH CAROLINA


Home > North America > United States > North Carolina
Elevation: 682 meters     Latitude: 35 36N     Longitude: 082 32W

WEATHER
 
SELECT A DAY
Number of Records: 229,512;   Date Range: 1/1/95 - 10/22/14
 
SHARE

PRINT THIS DATA

[ ← Previous Day ]
WEATHER ALMANAC - 10 APRIL, 2013
[ Next Day → ]
[ °F ]   °C
Weather ElementAverageHighLow
Temperature19.8 °C28.3 °C (2:54 pm)10 °C (7:54 am)
Dewpoint11.2 °C12.8 °C (10:54 am)8.9 °C (6:54 am)
Humidity60.9 %96 % (7:54 am)36 % (1:54 pm)
Barometer1017.3 hPa1020.3 hPa (12:54 pm)1013.9 hPa (10:54 pm)
Wind Speed8.4 km/h24.1 km/h (6:54 pm)
Weather ElementAverage
Visibility15.9 km
Wind DirectionESE (104.3 °)

Weather ElementTotal
Precipitation---
Cooling Degree Days0.8 (Base 18.3)
Growing Degree Days9.2 (Base 10)
Averaged from 23 records on 10 April, 2013
WEATHER CONDITIONS BREAKOUT
WIND DIRECTION BREAKOUT
WEATHER BY HOUR - 10 APRIL, 2013
[ °F ]   °C
Local TimeTemperatureDewpointHumidityBarometerVisibilityWind DirectionWind SpeedGust SpeedPrecipitationEventsConditions
1:54 AM16.1 °C11.1 °C72 %1019 hPa16.1 kmSouth (190°)13 km/hClear
2:54 AM15.6 °C10.6 °C72 %1018.3 hPa16.1 kmCalmClear
3:54 AM13.9 °C10.6 °C81 %1017.9 hPa16.1 kmCalmClear
4:54 AM12.2 °C10 °C86 %1017.9 hPa16.1 kmNW (320°)5.6 km/hClear
5:54 AM11.1 °C9.4 °C89 %1018.3 hPa16.1 kmCalmClear
6:54 AM10.6 °C8.9 °C89 %1019 hPa16.1 kmCalmClear
7:54 AM10 °C9.4 °C96 %1019.6 hPa12.9 kmCalmClear
8:54 AM12.8 °C10 °C83 %1019.6 hPa16.1 kmCalmClear
9:54 AM18.3 °C11.1 °C63 %1019.3 hPa16.1 kmCalmClear
10:54 AM21.1 °C12.8 °C59 %1019 hPa16.1 kmCalmClear
11:54 AM23.9 °C11.7 °C46 %1019 hPa16.1 kmCalmClear
12:54 PM26 °C12 °C42 %1020.3 hPa16.1 kmWest (280°)11.1 km/hClear
1:54 PM27.2 °C11.1 °C36 %1016.9 hPa16.1 kmSW (220°)14.8 km/hClear
2:54 PM28.3 °C11.7 °C36 %1016.3 hPa16.1 kmSSE (160°)16.7 km/hClear
3:54 PM27.8 °C12.2 °C38 %1015.6 hPa16.1 kmSSW (200°)22.2 km/hClear
4:54 PM27.8 °C11.7 °C37 %1014.9 hPa16.1 kmSouth (170°)20.4 km/hClear
5:54 PM26.7 °C11.1 °C38 %1014.9 hPa16.1 kmSouth (180°)22.2 km/hClear
6:54 PM25 °C12.2 °C45 %1014.9 hPa16.1 kmSouth (180°)24.1 km/hClear
7:54 PM23.3 °C12.2 °C50 %1015.2 hPa16.1 kmSouth (190°)18.5 km/hClear
8:54 PM20.6 °C12.2 °C58 %1015.2 hPa16.1 kmSSE (160°)13 km/hClear
9:54 PM20.6 °C11.7 °C57 %1014.6 hPa16.1 kmSSE (150°)9.3 km/hClear
10:54 PM19.4 °C11.7 °C61 %1013.9 hPa16.1 kmCalmClear
11:54 PM17.8 °C11.7 °C67 %1014.2 hPa16.1 kmCalmClear
Hourly data recorded from KAVL, located 0 kilometers away from Asheville, North Carolina







STORIES FROM OUR PARTNERS